contact:dominique.lefevre@mio.osupytheas.fr, maurice.libes@osupytheas.fr, didier.mallarino@osupytheas.fr
Project:EMSO http://www.emso-fr.org/EMSO-France
Depth: 2436.0 m
Title:EMSO Ligure Ouest : Data MII capteur AQUADOPP
Date,Latitude,Longitude,X_East,Y_North,Z_Up,Amplitude_X,Amplitude_Y,Amplitude_Z,Batterie,SoundSpeed,Heading,Pitch,Roll,Pressure,TIS,Speed,Direction
, degrees North, degrees East, m.s-1, m.s-1,m.s-1, 1, 1, 1, Volt, m.s-1, degree, degree, degree, dbar, degree_C, m.s-1, degree
2020-11-19T00:04:03,42.805,6.029,0.038,-0.022,0.049,101.0,105.0,99.0,13.3,1505.3,323.5,-0.8,1.8,2470.488,13.31,0.043,120.1
2020-11-19T00:07:03,42.805,6.029,-0.023,-0.007,-0.018,101.0,105.0,99.0,13.4,1505.3,326.2,-0.7,1.9,2470.516,13.32,0.024,253.1
2020-11-19T00:10:03,42.805,6.029,-0.045,-0.028,-0.034,101.0,105.0,99.0,13.3,1505.3,327.5,-0.7,1.8,2470.464,13.32,0.053,238.1
2020-11-19T00:13:03,42.805,6.029,-0.003,-0.043,-0.035,102.0,105.0,99.0,13.3,1505.3,327.8,-0.7,1.8,2470.496,13.33,0.043,184.0
2020-11-19T00:16:03,42.805,6.029,0.015,-0.022,0.013,102.0,105.0,100.0,13.4,1505.3,323.1,-0.7,1.8,2470.498,13.33,0.026,145.7
2020-11-19T00:19:03,42.805,6.029,0.005,-0.02,0.016,102.0,104.0,99.0,13.4,1505.3,326.9,-0.7,1.9,2470.453,13.33,0.02,166.0
2020-11-19T00:22:03,42.805,6.029,-0.002,-0.002,0.023,100.0,105.0,100.0,13.3,1505.3,324.9,-0.7,1.9,2470.473,13.33,0.002,225.0
2020-11-19T00:25:03,42.805,6.029,0.018,0.004,0.036,102.0,104.0,100.0,13.3,1505.3,325.9,-0.7,1.8,2470.469,13.33,0.018,77.5
2020-11-19T00:28:03,42.805,6.029,-0.008,-0.001,0.024,101.0,105.0,100.0,13.4,1505.3,327.2,-0.7,1.8,2470.462,13.33,0.008,262.9
2020-11-19T00:34:03,42.805,6.029,0.086,-0.032,0.076,101.0,104.0,99.0,13.4,1505.3,324.5,-0.7,1.8,2470.486,13.31,0.091,110.4
2020-11-19T00:37:03,42.805,6.029,0.055,0.012,0.076,100.0,105.0,100.0,13.3,1505.3,323.2,-0.7,1.8,2470.472,13.32,0.056,77.7
2020-11-19T00:40:03,42.805,6.029,0.075,0.002,0.11,101.0,106.0,100.0,13.3,1505.3,326.0,-0.7,1.8,2470.498,13.33,0.075,88.5
2020-11-19T00:43:03,42.805,6.029,0.019,-0.017,0.016,101.0,104.0,99.0,13.4,1505.3,326.9,-0.7,1.8,2470.489,13.33,0.025,131.8
2020-11-19T00:46:03,42.805,6.029,0.055,-0.017,0.018,102.0,104.0,99.0,13.3,1505.3,326.9,-0.7,1.8,2470.485,13.33,0.057,107.2
2020-11-19T00:49:03,42.805,6.029,0.046,-0.002,0.04,102.0,104.0,101.0,13.4,1505.3,323.1,-0.7,1.8,2470.481,13.33,0.046,92.5
2020-11-19T00:52:03,42.805,6.029,0.003,-0.019,-0.009,103.0,105.0,98.0,13.3,1505.4,322.9,-0.7,1.8,2470.471,13.34,0.019,171.0
2020-11-19T00:55:03,42.805,6.029,-0.047,-0.021,-0.016,101.0,105.0,99.0,13.4,1505.4,326.3,-0.7,1.8,2470.482,13.34,0.051,245.9
2020-11-19T00:58:03,42.805,6.029,-0.045,-0.01,-0.012,102.0,106.0,100.0,13.3,1505.4,325.9,-0.7,1.8,2470.428,13.34,0.046,257.5
2020-11-19T01:04:03,42.805,6.029,-0.035,0.0,0.009,101.0,107.0,100.0,13.4,1505.3,325.1,-0.7,1.8,2470.494,13.32,0.035,270.0
2020-11-19T01:07:03,42.805,6.029,0.015,-0.021,0.036,101.0,105.0,100.0,13.4,1505.3,326.5,-0.7,1.9,2470.478,13.33,0.025,144.5
2020-11-19T01:10:03,42.805,6.029,0.018,-0.003,0.022,101.0,107.0,100.0,13.4,1505.3,327.5,-0.7,1.8,2470.443,13.33,0.018,99.5
2020-11-19T01:13:03,42.805,6.029,0.03,-0.014,0.043,101.0,105.0,99.0,13.4,1505.3,328.1,-0.7,1.8,2470.489,13.33,0.033,115.0
2020-11-19T01:16:03,42.805,6.029,-0.004,-0.018,0.02,102.0,105.0,99.0,13.4,1505.3,325.5,-0.7,1.8,2470.508,13.33,0.018,192.5
2020-11-19T01:19:03,42.805,6.029,-0.007,-0.007,0.019,103.0,106.0,99.0,13.4,1505.4,326.6,-0.7,1.8,2470.48,13.34,0.009,225.0
2020-11-19T01:22:03,42.805,6.029,0.016,-0.015,0.036,99.0,106.0,100.0,13.4,1505.4,327.3,-0.7,1.9,2470.449,13.34,0.021,133.1
2020-11-19T01:43:03,42.805,6.029,0.024,-0.008,0.033,100.0,106.0,100.0,13.4,1505.2,323.2,-0.8,1.8,2470.72,13.28,0.025,108.4
2020-11-19T01:46:03,42.805,6.029,0.035,-0.009,0.041,101.0,105.0,101.0,13.3,1505.2,326.0,-0.7,1.8,2470.632,13.3,0.036,104.4
2020-11-19T01:49:03,42.805,6.029,0.033,-0.01,0.036,102.0,105.0,100.0,13.4,1505.3,324.9,-0.7,1.8,2470.623,13.31,0.034,106.9
2020-11-19T01:52:03,42.805,6.029,0.021,0.012,0.048,102.0,106.0,99.0,13.4,1505.3,326.5,-0.7,1.9,2470.601,13.32,0.024,60.3
2020-11-19T01:55:03,42.805,6.029,0.004,-0.006,0.047,101.0,106.0,100.0,13.4,1505.3,324.8,-0.7,1.8,2470.628,13.32,0.007,146.3
2020-11-19T01:58:03,42.805,6.029,-0.009,-0.009,0.008,102.0,106.0,99.0,13.3,1505.3,323.8,-0.7,1.8,2470.567,13.33,0.012,225.0
2020-11-19T02:04:03,42.805,6.029,0.031,-0.002,0.037,102.0,105.0,98.0,13.3,1505.3,325.9,-0.7,1.8,2470.569,13.32,0.031,93.7
2020-11-19T02:07:03,42.805,6.029,0.018,-0.004,0.036,101.0,105.0,100.0,13.3,1505.3,327.2,-0.7,1.8,2470.548,13.32,0.018,102.5
2020-11-19T02:10:03,42.805,6.029,0.025,-0.006,0.04,99.0,106.0,99.0,13.4,1505.3,324.0,-0.7,1.8,2470.536,13.33,0.025,103.5
2020-11-19T02:13:03,42.805,6.029,0.008,-0.013,0.022,101.0,106.0,99.0,13.3,1505.3,323.8,-0.7,1.8,2470.468,13.33,0.015,148.4
2020-11-19T02:16:03,42.805,6.029,0.005,-0.003,0.006,100.0,106.0,99.0,13.3,1505.4,325.7,-0.7,1.9,2470.476,13.34,0.005,121.0
2020-11-19T02:19:03,42.805,6.029,0.012,-0.019,0.03,101.0,106.0,99.0,13.4,1505.4,324.7,-0.7,1.8,2470.46,13.34,0.022,147.7
2020-11-19T02:22:03,42.805,6.029,-0.003,0.003,0.001,100.0,106.0,100.0,13.4,1505.4,327.9,-0.7,1.8,2470.427,13.34,0.004,315.0
2020-11-19T02:25:03,42.805,6.029,0.001,-0.008,0.03,101.0,107.0,101.0,13.3,1505.4,324.3,-0.7,1.8,2470.458,13.34,0.008,172.9
2020-11-19T02:28:03,42.805,6.029,0.025,-0.037,-0.007,102.0,106.0,100.0,13.4,1505.4,326.7,-0.7,1.8,2470.448,13.34,0.044,146.0
2020-11-19T02:31:03,42.805,6.029,-0.012,-0.004,0.011,102.0,106.0,100.0,13.4,1505.4,323.4,-0.6,1.8,2470.435,13.34,0.012,251.6
2020-11-19T02:34:03,42.805,6.029,-0.017,-0.009,-0.01,102.0,104.0,100.0,13.4,1505.4,324.5,-0.7,1.8,2470.377,13.34,0.019,242.1
2020-11-19T02:37:03,42.805,6.029,-0.013,0.0,-0.021,102.0,107.0,100.0,13.4,1505.4,325.8,-0.7,1.8,2470.394,13.35,0.013,270.0
2020-11-19T02:40:03,42.805,6.029,-0.008,-0.015,0.01,102.0,106.0,102.0,13.4,1505.4,328.3,-0.7,1.8,2470.405,13.35,0.017,208.1
2020-11-19T02:43:03,42.805,6.029,-0.02,-0.002,-0.008,101.0,107.0,100.0,13.4,1505.4,327.5,-0.7,1.8,2470.395,13.35,0.02,264.3
2020-11-19T02:46:03,42.805,6.029,-0.011,0.005,-0.013,101.0,107.0,99.0,13.4,1505.4,326.4,-0.7,1.8,2470.424,13.35,0.012,294.4
2020-11-19T02:49:03,42.805,6.029,-0.001,-0.018,-0.032,102.0,106.0,98.0,13.4,1505.4,325.5,-0.8,1.8,2470.415,13.34,0.018,183.2
2020-11-19T02:52:03,42.805,6.029,-0.004,0.003,0.03,102.0,106.0,98.0,13.4,1505.4,325.7,-0.7,1.9,2470.406,13.35,0.005,306.9
2020-11-19T02:55:03,42.805,6.029,-0.03,-0.02,-0.048,102.0,105.0,100.0,13.4,1505.4,326.5,-0.7,1.8,2470.395,13.35,0.036,236.3
2020-11-19T02:58:03,42.805,6.029,-0.018,-0.004,-0.012,100.0,107.0,98.0,13.4,1505.4,326.7,-0.7,1.8,2470.449,13.35,0.018,257.5
2020-11-19T03:04:03,42.805,6.029,-0.009,-0.002,0.001,102.0,105.0,101.0,13.3,1505.3,327.9,-0.7,1.8,2470.436,13.33,0.009,257.5
2020-11-19T03:07:03,42.805,6.029,-0.031,-0.016,-0.014,102.0,105.0,99.0,13.4,1505.3,325.9,-0.7,1.8,2470.368,13.33,0.034,242.7
2020-11-19T03:10:03,42.805,6.029,-0.031,-0.018,-0.01,101.0,105.0,101.0,13.3,1505.4,322.8,-0.7,1.8,2470.4,13.34,0.035,239.9
2020-11-19T03:13:03,42.805,6.029,-0.039,0.009,-0.011,101.0,106.0,100.0,13.4,1505.4,326.1,-0.7,1.8,2470.425,13.34,0.04,283.0
2020-11-19T03:16:03,42.805,6.029,-0.051,0.01,-0.021,101.0,106.0,102.0,13.4,1505.4,325.1,-0.7,1.8,2470.443,13.34,0.051,281.1
2020-11-19T03:19:03,42.805,6.029,-0.015,-0.005,-0.03,100.0,107.0,100.0,13.4,1505.4,327.6,-0.7,1.8,2470.418,13.34,0.015,251.6
2020-11-19T03:25:03,42.805,6.029,-0.045,0.006,-0.042,99.0,104.0,101.0,13.3,1505.3,326.8,-0.7,1.8,2470.441,13.32,0.045,277.6
2020-11-19T03:28:03,42.805,6.029,-0.045,0.01,-0.009,103.0,105.0,98.0,13.4,1505.3,326.8,-0.7,1.8,2470.424,13.33,0.046,282.5
2020-11-19T03:31:03,42.805,6.029,-0.042,-0.022,-0.027,101.0,106.0,98.0,13.4,1505.3,328.5,-0.7,1.9,2470.419,13.33,0.047,242.4
2020-11-19T03:34:03,42.805,6.029,-0.048,-0.014,-0.038,102.0,103.0,100.0,13.4,1505.4,323.4,-0.7,1.8,2470.399,13.34,0.05,253.7
2020-11-19T03:37:03,42.805,6.029,-0.044,-0.012,-0.037,102.0,105.0,99.0,13.3,1505.4,326.1,-0.7,1.8,2470.396,13.34,0.045,254.7
2020-11-19T03:40:03,42.805,6.029,-0.04,-0.003,-0.025,102.0,105.0,100.0,13.4,1505.4,324.4,-0.7,1.8,2470.402,13.34,0.04,265.7
2020-11-19T03:43:03,42.805,6.029,-0.031,-0.004,-0.044,100.0,106.0,101.0,13.4,1505.4,328.1,-0.7,1.8,2470.418,13.34,0.031,262.7
2020-11-19T03:46:03,42.805,6.029,-0.026,-0.012,-0.049,100.0,106.0,98.0,13.3,1505.4,326.2,-0.7,1.8,2470.395,13.35,0.028,245.2
2020-11-19T03:49:03,42.805,6.029,-0.051,-0.018,-0.068,103.0,104.0,99.0,13.4,1505.4,323.0,-0.7,1.8,2470.342,13.35,0.054,250.6
2020-11-19T03:52:03,42.805,6.029,-0.065,-0.024,-0.07,101.0,104.0,100.0,13.4,1505.4,326.2,-0.7,1.8,2470.374,13.35,0.069,249.7
2020-11-19T03:55:03,42.805,6.029,-0.012,-0.005,-0.037,102.0,104.0,99.0,13.4,1505.4,326.9,-0.7,1.8,2470.422,13.35,0.013,247.4
2020-11-19T03:58:03,42.805,6.029,-0.019,-0.017,-0.01,99.0,106.0,99.0,13.4,1505.4,325.7,-0.7,1.8,2470.382,13.35,0.025,228.2
2020-11-19T04:04:03,42.805,6.029,-0.034,-0.008,-0.005,105.0,106.0,100.0,13.4,1505.3,323.8,-0.7,1.8,2470.447,13.33,0.034,256.8
2020-11-19T04:07:03,42.805,6.029,-0.031,-0.026,-0.034,102.0,108.0,97.0,13.4,1505.4,324.4,-0.7,1.8,2470.392,13.34,0.04,230.0
2020-11-19T04:10:03,42.805,6.029,-0.062,0.0,-0.028,100.0,103.0,99.0,13.4,1505.4,327.0,-0.7,1.8,2470.452,13.34,0.061,270.0
2020-11-19T04:13:03,42.805,6.029,-0.017,-0.012,0.008,98.0,104.0,101.0,13.3,1505.4,325.2,-0.7,1.8,2470.401,13.34,0.02,234.8
2020-11-19T04:16:03,42.805,6.029,-0.016,-0.017,-0.012,100.0,106.0,100.0,13.4,1505.4,326.4,-0.7,1.8,2470.423,13.35,0.023,223.3
2020-11-19T04:19:03,42.805,6.029,-0.033,-0.01,-0.021,102.0,103.0,99.0,13.3,1505.4,326.7,-0.7,1.8,2470.408,13.35,0.034,253.1
2020-11-19T04:22:03,42.805,6.029,-0.012,-0.017,-0.049,102.0,104.0,99.0,13.4,1505.4,327.1,-0.7,1.8,2470.381,13.35,0.02,215.2
2020-11-19T04:25:03,42.805,6.029,0.02,0.009,0.017,101.0,104.0,100.0,13.4,1505.4,325.3,-0.7,1.8,2470.399,13.35,0.021,65.8
2020-11-19T04:28:03,42.805,6.029,-0.003,-0.009,0.004,100.0,104.0,100.0,13.4,1505.4,323.8,-0.7,1.8,2470.357,13.35,0.009,198.4
2020-11-19T04:31:03,42.805,6.029,0.031,-0.003,0.007,101.0,104.0,101.0,13.4,1505.4,323.4,-0.7,1.8,2470.407,13.35,0.031,95.5
2020-11-19T04:34:03,42.805,6.029,0.022,0.0,0.015,100.0,104.0,99.0,13.4,1505.4,322.9,-0.7,1.8,2470.389,13.35,0.022,90.0
2020-11-19T04:37:03,42.805,6.029,0.023,-0.013,0.025,105.0,104.0,99.0,13.4,1505.4,325.7,-0.7,1.8,2470.436,13.35,0.026,119.5
2020-11-19T04:40:03,42.805,6.029,-0.002,-0.011,0.074,102.0,104.0,99.0,13.3,1505.4,324.6,-0.7,1.8,2470.374,13.35,0.011,190.3
2020-11-19T04:43:03,42.805,6.029,-0.002,-0.015,-0.039,103.0,106.0,98.0,13.4,1505.4,326.7,-0.7,1.8,2470.388,13.35,0.015,187.6
2020-11-19T04:46:03,42.805,6.029,0.044,-0.014,0.053,100.0,103.0,99.0,13.3,1505.4,326.2,-0.7,1.8,2470.409,13.35,0.046,107.6
2020-11-19T04:49:03,42.805,6.029,0.012,0.0,0.027,102.0,103.0,100.0,13.4,1505.4,327.0,-0.7,1.8,2470.418,13.35,0.012,90.0
2020-11-19T04:52:03,42.805,6.029,0.003,-0.024,0.004,100.0,105.0,99.0,13.4,1505.4,324.1,-0.7,1.8,2470.397,13.35,0.024,172.9
2020-11-19T04:55:03,42.805,6.029,0.036,0.015,0.051,102.0,104.0,98.0,13.4,1505.4,326.1,-0.7,1.8,2470.391,13.35,0.039,67.4
2020-11-19T04:58:03,42.805,6.029,0.023,-0.014,-0.01,102.0,103.0,99.0,13.4,1505.4,327.0,-0.7,1.8,2470.392,13.35,0.026,121.3
2020-11-19T05:04:03,42.805,6.029,0.033,-0.02,0.042,99.0,103.0,100.0,13.3,1505.3,326.3,-0.7,1.8,2470.409,13.33,0.038,121.2
2020-11-19T05:07:03,42.805,6.029,0.04,0.013,0.07,99.0,105.0,99.0,13.3,1505.4,322.7,-0.8,1.8,2470.413,13.34,0.042,72.0
2020-11-19T05:10:03,42.805,6.029,0.024,-0.007,0.025,100.0,105.0,98.0,13.4,1505.4,325.3,-0.7,1.8,2470.418,13.34,0.025,106.3
2020-11-19T05:13:03,42.805,6.029,0.018,0.01,0.066,99.0,103.0,100.0,13.3,1505.4,326.5,-0.7,1.8,2470.404,13.34,0.02,60.9
2020-11-19T05:16:03,42.805,6.029,0.019,0.0,0.028,101.0,104.0,100.0,13.4,1505.4,323.0,-0.7,1.8,2470.413,13.34,0.019,90.0
2020-11-19T05:19:03,42.805,6.029,0.023,-0.006,0.028,104.0,104.0,100.0,13.3,1505.4,327.6,-0.7,1.8,2470.386,13.34,0.023,104.6
2020-11-19T05:22:03,42.805,6.029,0.02,-0.02,0.03,103.0,104.0,101.0,13.4,1505.4,326.5,-0.7,1.8,2470.399,13.35,0.028,135.0
2020-11-19T05:25:03,42.805,6.029,0.003,0.01,0.0,102.0,106.0,99.0,13.3,1505.4,326.5,-0.7,1.8,2470.431,13.35,0.01,16.7
2020-11-19T05:28:03,42.805,6.029,0.007,-0.02,-0.027,99.0,106.0,100.0,13.3,1505.4,326.1,-0.7,1.8,2470.427,13.35,0.021,160.7
2020-11-19T05:31:03,42.805,6.029,0.009,-0.006,0.007,101.0,103.0,99.0,13.4,1505.4,326.9,-0.7,1.9,2470.403,13.35,0.01,123.7
2020-11-19T05:34:03,42.805,6.029,0.013,-0.004,0.016,102.0,106.0,100.0,13.3,1505.4,324.9,-0.7,1.8,2470.412,13.35,0.013,107.1
2020-11-19T05:37:03,42.805,6.029,0.028,-0.001,0.025,100.0,103.0,99.0,13.4,1505.4,324.5,-0.7,1.9,2470.414,13.35,0.028,92.0
2020-11-19T05:40:03,42.805,6.029,0.003,0.0,0.009,101.0,104.0,100.0,13.4,1505.4,323.7,-0.7,1.8,2470.389,13.35,0.003,90.0
2020-11-19T05:43:03,42.805,6.029,0.023,0.009,0.061,101.0,104.0,100.0,13.3,1505.4,325.4,-0.7,1.8,2470.407,13.35,0.024,68.6
2020-11-19T05:46:03,42.805,6.029,0.033,0.001,-0.003,100.0,104.0,99.0,13.4,1505.4,324.7,-0.7,1.8,2470.37,13.35,0.033,88.3
2020-11-19T05:49:03,42.805,6.029,0.016,-0.015,0.0,101.0,105.0,98.0,13.4,1505.4,327.1,-0.7,1.8,2470.417,13.35,0.021,133.1
2020-11-19T05:52:03,42.805,6.029,0.015,-0.014,0.012,100.0,104.0,100.0,13.3,1505.4,325.0,-0.7,1.9,2470.435,13.35,0.02,133.0
2020-11-19T05:55:03,42.805,6.029,0.025,0.004,0.005,101.0,104.0,100.0,13.4,1505.4,325.2,-0.7,1.8,2470.424,13.35,0.025,80.9
2020-11-19T05:58:03,42.805,6.029,0.017,-0.021,0.032,100.0,104.0,99.0,13.4,1505.4,328.2,-0.7,1.9,2470.432,13.35,0.027,141.0
2020-11-19T06:04:03,42.805,6.029,-0.004,-0.011,-0.014,102.0,103.0,98.0,13.4,1505.3,327.0,-0.7,1.8,2470.458,13.33,0.011,200.0
2020-11-19T06:07:03,42.805,6.029,0.017,0.009,0.049,100.0,104.0,100.0,13.4,1505.4,325.2,-0.7,1.8,2470.44,13.34,0.019,62.1
2020-11-19T06:10:03,42.805,6.029,0.0,-0.005,0.013,101.0,104.0,99.0,13.4,1505.4,328.2,-0.7,1.8,2470.454,13.34,0.005,180.0
2020-11-19T06:13:03,42.805,6.029,0.058,-0.019,0.03,102.0,103.0,100.0,13.3,1505.4,324.5,-0.7,1.8,2470.453,13.34,0.061,108.1
2020-11-19T06:16:03,42.805,6.029,0.0,-0.006,0.026,103.0,104.0,98.0,13.4,1505.4,326.9,-0.7,1.9,2470.472,13.34,0.006,180.0
2020-11-19T06:19:03,42.805,6.029,0.001,-0.025,-0.024,100.0,104.0,100.0,13.3,1505.4,325.5,-0.7,1.9,2470.467,13.34,0.025,177.7
2020-11-19T06:22:03,42.805,6.029,0.025,-0.005,0.016,101.0,104.0,100.0,13.3,1505.4,325.2,-0.7,1.9,2470.428,13.35,0.025,101.3
2020-11-19T06:25:03,42.805,6.029,0.053,0.007,0.043,102.0,103.0,99.0,13.4,1505.4,325.1,-0.7,1.8,2470.43,13.35,0.053,82.5
2020-11-19T06:28:03,42.805,6.029,0.004,0.01,0.01,102.0,104.0,101.0,13.4,1505.4,325.3,-0.7,1.8,2470.455,13.35,0.01,21.8
2020-11-19T06:31:03,42.805,6.029,0.02,-0.005,0.005,103.0,105.0,98.0,13.4,1505.4,328.1,-0.7,1.8,2470.456,13.35,0.02,104.0
2020-11-19T06:34:03,42.805,6.029,0.027,-0.006,0.041,102.0,104.0,100.0,13.4,1505.4,328.6,-0.7,1.8,2470.451,13.35,0.027,102.5
2020-11-19T06:37:03,42.805,6.029,0.046,-0.007,0.039,101.0,105.0,98.0,13.3,1505.4,328.2,-0.7,1.8,2470.499,13.35,0.046,98.7
2020-11-19T06:40:03,42.805,6.029,0.041,0.014,0.044,102.0,103.0,99.0,13.4,1505.4,328.1,-0.7,1.8,2470.497,13.35,0.043,71.1
2020-11-19T06:43:03,42.805,6.029,-0.001,-0.022,0.03,102.0,106.0,98.0,13.3,1505.4,328.0,-0.7,1.8,2470.436,13.35,0.022,182.6
2020-11-19T06:46:03,42.805,6.029,0.046,-0.025,0.059,102.0,105.0,99.0,13.3,1505.4,325.0,-0.7,1.8,2470.453,13.34,0.052,118.5
2020-11-19T06:49:03,42.805,6.029,0.023,-0.013,0.026,100.0,108.0,101.0,13.4,1505.4,326.2,-0.7,1.8,2470.471,13.34,0.026,119.5
2020-11-19T06:52:03,42.805,6.029,0.01,0.0,0.008,101.0,106.0,101.0,13.4,1505.4,326.7,-0.7,1.8,2470.489,13.34,0.01,90.0
2020-11-19T06:55:03,42.805,6.029,-0.02,0.005,-0.002,101.0,106.0,99.0,13.4,1505.4,326.1,-0.7,1.8,2470.487,13.34,0.02,284.0
2020-11-19T06:58:03,42.805,6.029,-0.009,-0.006,-0.017,100.0,106.0,101.0,13.4,1505.4,325.0,-0.7,1.8,2470.502,13.34,0.01,236.3
2020-11-19T07:04:03,42.805,6.029,-0.04,-0.01,-0.049,101.0,105.0,99.0,13.4,1505.3,327.0,-0.7,1.8,2470.555,13.32,0.041,256.0
2020-11-19T07:07:03,42.805,6.029,-0.075,0.0,-0.066,99.0,104.0,99.0,13.3,1505.3,325.7,-0.7,1.9,2470.498,13.32,0.074,270.0
2020-11-19T07:10:03,42.805,6.029,-0.064,-0.007,-0.044,102.0,105.0,99.0,13.4,1505.3,324.0,-0.7,1.9,2470.52,13.33,0.064,263.8
2020-11-19T07:13:03,42.805,6.029,-0.012,-0.009,-0.01,101.0,104.0,100.0,13.3,1505.3,324.7,-0.7,1.8,2470.495,13.33,0.015,233.1
2020-11-19T07:16:03,42.805,6.029,-0.022,-0.035,-0.048,102.0,103.0,98.0,13.4,1505.3,323.0,-0.7,1.8,2470.511,13.33,0.041,212.2
2020-11-19T07:19:03,42.805,6.029,-0.062,0.014,-0.033,101.0,105.0,100.0,13.4,1505.3,325.7,-0.7,1.8,2470.539,13.33,0.063,282.7
2020-11-19T07:22:03,42.805,6.029,-0.002,-0.016,0.002,101.0,114.0,100.0,13.4,1505.3,327.3,-0.7,1.8,2470.515,13.33,0.016,187.1
2020-11-19T07:25:03,42.805,6.029,-0.01,0.0,0.01,101.0,110.0,99.0,13.4,1505.4,323.0,-0.7,1.8,2470.521,13.34,0.01,270.0
2020-11-19T07:28:03,42.805,6.029,0.002,0.004,-0.021,100.0,106.0,102.0,13.4,1505.4,324.8,-0.7,1.8,2470.509,13.34,0.004,26.6
2020-11-19T07:31:03,42.805,6.029,-0.025,-0.008,-0.031,100.0,106.0,101.0,13.4,1505.4,327.8,-0.7,1.9,2470.507,13.34,0.026,252.3
2020-11-19T07:34:03,42.805,6.029,-0.052,-0.019,-0.053,103.0,104.0,99.0,13.4,1505.4,325.9,-0.7,1.8,2470.49,13.34,0.055,249.9
2020-11-19T07:37:03,42.805,6.029,-0.028,0.0,-0.034,102.0,106.0,99.0,13.4,1505.4,325.7,-0.7,1.8,2470.561,13.34,0.028,270.0
2020-11-19T07:40:03,42.805,6.029,-0.043,-0.019,-0.092,100.0,104.0,100.0,13.3,1505.4,326.1,-0.7,1.8,2470.516,13.34,0.047,246.2
2020-11-19T07:43:03,42.805,6.029,-0.049,-0.007,-0.025,102.0,106.0,98.0,13.4,1505.4,324.4,-0.7,1.8,2470.525,13.34,0.049,261.9
2020-11-19T07:46:03,42.805,6.029,-0.044,-0.031,-0.07,102.0,105.0,98.0,13.4,1505.4,326.9,-0.7,1.8,2470.549,13.34,0.053,234.8
2020-11-19T07:49:03,42.805,6.029,-0.054,-0.018,-0.029,100.0,107.0,98.0,13.3,1505.4,326.8,-0.7,1.8,2470.549,13.34,0.056,251.6
2020-11-19T07:52:03,42.805,6.029,-0.036,0.009,-0.035,102.0,105.0,100.0,13.4,1505.4,323.6,-0.7,1.9,2470.558,13.34,0.037,284.0
2020-11-19T07:55:03,42.805,6.029,-0.033,-0.025,-0.031,102.0,106.0,98.0,13.4,1505.4,325.0,-0.7,1.8,2470.563,13.34,0.041,232.9
2020-11-19T07:58:03,42.805,6.029,-0.019,0.0,-0.012,102.0,106.0,99.0,13.3,1505.4,327.0,-0.7,1.8,2470.606,13.34,0.019,270.0
2020-11-19T08:04:03,42.805,6.029,0.0,-0.01,-0.022,102.0,106.0,99.0,13.4,1505.3,326.5,-0.8,1.8,2470.63,13.32,0.01,180.0
2020-11-19T08:07:03,42.805,6.029,-0.012,-0.006,0.007,102.0,107.0,100.0,13.3,1505.3,325.3,-0.7,1.8,2470.634,13.33,0.013,243.4
2020-11-19T08:10:03,42.805,6.029,0.026,-0.023,0.019,104.0,105.0,99.0,13.4,1505.3,326.1,-0.7,1.8,2470.648,13.33,0.034,131.5
2020-11-19T08:13:03,42.805,6.029,-0.031,-0.002,0.018,102.0,108.0,99.0,13.4,1505.3,326.0,-0.7,1.8,2470.557,13.33,0.031,266.3
2020-11-19T08:16:03,42.805,6.029,-0.027,-0.014,-0.012,102.0,105.0,99.0,13.4,1505.3,326.0,-0.7,1.8,2470.596,13.33,0.03,242.6
2020-11-19T08:19:03,42.805,6.029,-0.049,-0.038,-0.071,101.0,105.0,99.0,13.3,1505.3,324.2,-0.7,1.8,2470.613,13.33,0.062,232.2
2020-11-19T08:22:03,42.805,6.029,-0.044,0.017,-0.008,101.0,105.0,99.0,13.3,1505.3,324.5,-0.7,1.9,2470.566,13.33,0.047,291.1
2020-11-19T08:25:03,42.805,6.029,-0.027,-0.005,-0.022,102.0,105.0,100.0,13.4,1505.3,324.9,-0.7,1.8,2470.589,13.33,0.027,259.5
2020-11-19T08:28:03,42.805,6.029,-0.013,-0.003,-0.029,102.0,103.0,98.0,13.4,1505.3,327.9,-0.7,1.8,2470.558,13.33,0.013,257.0
2020-11-19T08:31:03,42.805,6.029,-0.02,0.002,-0.037,101.0,104.0,101.0,13.4,1505.4,326.1,-0.7,1.8,2470.583,13.34,0.02,275.7
2020-11-19T08:34:03,42.805,6.029,-0.003,-0.017,0.006,101.0,104.0,99.0,13.3,1505.4,323.3,-0.7,1.8,2470.6,13.34,0.017,190.0
2020-11-19T08:37:03,42.805,6.029,-0.016,-0.002,-0.028,100.0,107.0,99.0,13.4,1505.4,324.7,-0.7,1.8,2470.618,13.34,0.016,262.9
2020-11-19T08:40:03,42.805,6.029,-0.003,-0.02,-0.039,101.0,104.0,99.0,13.4,1505.4,325.2,-0.7,1.8,2470.59,13.34,0.02,188.5
2020-11-19T08:43:03,42.805,6.029,-0.001,-0.012,-0.023,102.0,106.0,97.0,13.3,1505.4,324.6,-0.7,1.8,2470.592,13.34,0.012,184.8
2020-11-19T08:46:03,42.805,6.029,0.032,0.005,0.05,103.0,105.0,99.0,13.4,1505.3,324.5,-0.7,1.8,2470.603,13.33,0.032,81.1
2020-11-19T08:49:03,42.805,6.029,0.028,-0.008,0.053,101.0,106.0,100.0,13.4,1505.3,326.1,-0.7,1.8,2470.631,13.33,0.029,105.9
2020-11-19T08:52:03,42.805,6.029,-0.02,-0.018,-0.026,100.0,107.0,99.0,13.4,1505.3,327.9,-0.7,1.8,2470.614,13.33,0.026,228.0
2020-11-19T08:55:03,42.805,6.029,-0.007,0.001,-0.004,100.0,106.0,99.0,13.4,1505.3,327.3,-0.7,1.8,2470.603,13.33,0.007,278.1
2020-11-19T08:58:03,42.805,6.029,-0.031,-0.023,-0.019,101.0,105.0,99.0,13.3,1505.3,326.4,-0.7,1.9,2470.577,13.33,0.038,233.4
2020-11-19T09:04:03,42.805,6.029,-0.008,-0.021,-0.007,101.0,106.0,99.0,13.3,1505.3,324.1,-0.7,1.8,2470.633,13.31,0.022,200.9
2020-11-19T09:07:03,42.805,6.029,-0.012,0.011,0.01,102.0,106.0,99.0,13.3,1505.3,324.9,-0.8,1.8,2470.638,13.32,0.016,312.5
2020-11-19T09:10:03,42.805,6.029,0.001,-0.016,-0.004,100.0,106.0,100.0,13.4,1505.3,323.6,-0.7,1.9,2470.625,13.32,0.016,176.4
2020-11-19T09:13:03,42.805,6.029,-0.036,-0.011,-0.045,102.0,107.0,99.0,13.4,1505.3,327.5,-0.7,1.8,2470.605,13.33,0.037,253.0
2020-11-19T09:16:03,42.805,6.029,-0.027,0.006,-0.023,102.0,107.0,100.0,13.4,1505.3,324.0,-0.7,1.8,2470.642,13.33,0.027,282.5
2020-11-19T09:19:03,42.805,6.029,-0.051,-0.026,-0.075,102.0,106.0,100.0,13.4,1505.3,327.0,-0.7,1.8,2470.663,13.33,0.057,243.0
2020-11-19T09:22:03,42.805,6.029,0.007,-0.019,0.009,102.0,107.0,99.0,13.3,1505.3,323.2,-0.7,1.8,2470.62,13.33,0.02,159.8
2020-11-19T09:25:03,42.805,6.029,0.0,-0.029,-0.028,100.0,107.0,101.0,13.4,1505.3,326.6,-0.7,1.8,2470.616,13.33,0.028,180.0
2020-11-19T09:28:03,42.805,6.029,-0.005,0.001,-0.007,102.0,106.0,99.0,13.4,1505.3,327.6,-0.7,1.9,2470.648,13.33,0.005,281.3
2020-11-19T09:31:03,42.805,6.029,-0.013,-0.007,0.008,101.0,106.0,100.0,13.3,1505.3,323.2,-0.7,1.8,2470.629,13.33,0.014,241.7
2020-11-19T09:34:03,42.805,6.029,-0.01,0.011,0.008,100.0,107.0,100.0,13.4,1505.3,324.6,-0.7,1.8,2470.637,13.33,0.014,317.7
2020-11-19T09:37:03,42.805,6.029,-0.004,-0.003,0.012,101.0,107.0,99.0,13.3,1505.3,323.2,-0.7,1.8,2470.627,13.33,0.005,233.1
2020-11-19T09:40:03,42.805,6.029,0.008,0.001,0.004,101.0,106.0,97.0,13.4,1505.3,324.8,-0.7,1.8,2470.623,13.33,0.008,82.9
2020-11-19T09:43:03,42.805,6.029,-0.003,-0.011,-0.015,100.0,107.0,98.0,13.4,1505.3,326.1,-0.7,1.9,2470.65,13.33,0.011,195.3
2020-11-19T09:46:03,42.805,6.029,0.012,-0.036,-0.026,101.0,105.0,98.0,13.4,1505.3,323.8,-0.7,1.8,2470.623,13.33,0.037,161.6
2020-11-19T09:49:03,42.805,6.029,0.006,0.0,-0.009,101.0,106.0,99.0,13.4,1505.3,325.8,-0.7,1.8,2470.643,13.33,0.006,90.0
2020-11-19T09:52:03,42.805,6.029,0.009,-0.018,0.002,99.0,107.0,99.0,13.3,1505.3,326.4,-0.7,1.8,2470.655,13.33,0.02,153.4
2020-11-19T09:55:03,42.805,6.029,-0.034,0.004,0.0,101.0,107.0,98.0,13.4,1505.3,326.7,-0.7,1.8,2470.581,13.33,0.034,276.7
2020-11-19T09:58:03,42.805,6.029,0.042,-0.003,-0.003,102.0,106.0,98.0,13.4,1505.3,326.3,-0.7,1.8,2470.602,13.33,0.042,94.1
2020-11-19T10:04:03,42.805,6.029,0.033,0.022,0.051,101.0,107.0,100.0,13.4,1505.3,324.2,-0.7,1.8,2470.659,13.31,0.039,56.3
2020-11-19T10:07:03,42.805,6.029,0.049,-0.002,0.062,100.0,106.0,101.0,13.3,1505.3,326.7,-0.7,1.8,2470.625,13.32,0.049,92.3
2020-11-19T10:10:03,42.805,6.029,-0.003,-0.025,-0.045,101.0,104.0,100.0,13.4,1505.3,325.9,-0.7,1.8,2470.628,13.32,0.025,186.8
2020-11-19T10:13:03,42.805,6.029,0.002,-0.013,-0.043,102.0,104.0,100.0,13.4,1505.3,327.5,-0.7,1.9,2470.632,13.32,0.013,171.3
2020-11-19T10:16:03,42.805,6.029,-0.015,-0.006,-0.007,100.0,106.0,98.0,13.4,1505.3,323.1,-0.7,1.8,2470.632,13.33,0.016,248.2
2020-11-19T10:19:03,42.805,6.029,0.025,-0.019,-0.002,101.0,106.0,101.0,13.4,1505.3,326.3,-0.7,1.8,2470.623,13.33,0.031,127.2
2020-11-19T10:22:03,42.805,6.029,0.044,-0.006,-0.018,100.0,105.0,100.0,13.4,1505.3,326.1,-0.7,1.9,2470.63,13.33,0.044,97.8
2020-11-19T10:25:03,42.805,6.029,0.051,-0.022,0.014,103.0,105.0,100.0,13.3,1505.3,327.8,-0.7,1.9,2470.638,13.33,0.055,113.3